Location: El Álamo
(40.2307°N, 3.9945°W)
Time: 01:09:35
(UTC+00:00)

Cosmos 1605 Rocket - Pass Details

Date: 19 May 2025
Orbit: 943 x 1005 km, 82.9° (Epoch: 24 June)

Event Time Altitude Azimuth Distance (km) Brightness Sun altitude
Rises 23:26:15 0° 355° (N) 3,719 8.3 -28.8°
Reaches altitude 10° 23:28:50 10° 358° (N) 2,758 7.3 -28.9°
Maximum altitude 23:35:07 67° 81° (E) 1,055 4.0 -29.2°
Enters shadow 23:35:16 67° 90° (E) 1,056 4.0 -29.2°
